Location: Casilda
(33.0440°S, 61.1680°W)
Time: 00:09:59
(UTC-03:00)

ISS - Pass Details

Date: 27 March 2020
Orbit: 417 x 423 km, 51.6° (Epoch: 29 March)

Event Time Altitude Azimuth Distance (km) Brightness Sun altitude
Exits shadow 04:57:30 18° 130° (SE) 1,151 -0.9 -29.0°
Drops below altitude 10° 04:58:27 10° 131° (SE) 1,532 -0.1 -28.8°
Sets 05:00:34 0° 132° (SE) 2,404 1.1 -28.4°
